Location: Lafig�re
(44.4503°N, 4.0357°E)
Time: 16:30:14
(UTC+00:00)

Cosmos 1300 Rocket - Pass Details

Date: 24 September 2020
Orbit: 601 x 627 km, 82.5° (Epoch: 26 October)

Event Time Altitude Azimuth Distance (km) Brightness Sun altitude
Rises 18:12:14 0° 174° (S) 2,882 6.9 -7.1°
Reaches altitude 10° 18:14:28 10° 170° (S) 1,984 6.0 -7.5°
Maximum altitude 18:18:45 53° 94° (E) 773 3.7 -8.3°
Drops below altitude 10° 18:23:05 10° 18° (NNE) 2,010 6.1 -9.0°
Sets 18:25:22 0° 14° (NNE) 2,923 7.0 -9.5°
